User: anonymous   Login
Location: Unspecified
(0.0000°N, 0.0000°E)
Time: 20:46:11
(UTC+00:00)
Language:

deb Explorer IX - Orbit

View from above orbital plane
View from above orbital plane
View from above satellite
View from above satellite

Ground track
Ground track

The orbit data is extracted from the following two-line orbital elements,

1    85U 61004C   19257.31710061 -.00001825  00000-0 -36617-3 0  9991
2    85  38.7733 353.7127 0391197  93.2887 271.2679 14.19957360891660
Epoch (UTC): 14 September 2019 07:36:37
Eccentricity: 0.0391197
inclination: 38.7733°
perigee height: 543 km
apogee height: 1107 km
right ascension of ascending node: 353.7127°
argument of perigee: 93.2887°
revolutions per day: 14.19957360
mean anomaly at epoch: 271.2679°
orbit number at epoch: 89166

The dashed part of the orbit path shows where the satellite is in the earth's shadow,  

DLR